Regional Weather Roundup
Issued by NWS

Home | Current Version | Previous Version | Text Only | Print | Product List | Glossary Off
Versions: 1 2 3 4 5 6 7 8 9 10 11 12 13 14 15 16 17 18 19 20 21 22 23 24 25 26 27 28 29 30 31 32 33 34 35 36 37 38 39 40 41 42 43 44 45 46 47 48 49 50

000
ASUS44 KMEG 011600
RWRTN
TENNESSEE HOURLY STATE WEATHER ROUNDUP
NATIONAL WEATHER SERVICE MEMPHIS TN
1100 AM CDT SUN MAY 01 2016

TNZ002-004-019-021-049-052-054-088>092-011700-
WEST TENNESSEE

CITY           SKY/WX    TMP DP  RH WIND       PRES   REMARKS
MEMPHIS INTL   MOSUNNY   79  69  71 S9        29.95R
NWS MEMPHIS      N/A     80 N/A N/A MISG        N/A
JACKSON        PTSUNNY   76  67  73 S7        29.95R
DYERSBURG      PTSUNNY   79  66  65 SW7         N/A
$$

TNZ008-025-027-028-033-062-065-066-011700-
NORTH MIDDLE TENNESSEE

CITY           SKY/WX    TMP DP  RH WIND       PRES   REMARKS
NASHVILLE      MOSUNNY   74  63  68 VRB5      29.97F
CLARKSVILLE    CLOUDY    71  65  81 S7        29.95S
CROSSVILLE     MOSUNNY   74  61  63 VRB6      30.02F
$$

TNZ061-075-076-078-094-096-097-011700-
SOUTH MIDDLE TENNESSEE

CITY           SKY/WX    TMP DP  RH WIND       PRES   REMARKS
$$

TNZ017-018-042-046-047-011700-
NORTHEAST TENNESSEE

CITY           SKY/WX    TMP DP  RH WIND       PRES   REMARKS
TRI CITIES     MOSUNNY   69  63  81 S5        30.05F
$$

TNZ012-013-036-069-073-074-011700-
CENTRAL EAST TENNESSEE

CITY           SKY/WX    TMP DP  RH WIND       PRES   REMARKS
KNOXVILLE      PTSUNNY   76  66  71 SW14      30.00F
OAK RIDGE      MOSUNNY   75  65  70 VRB7      30.01F
$$

TNZ083-085-099-011700-
SOUTHEAST TENNESSEE

CITY           SKY/WX    TMP DP  RH WIND       PRES   REMARKS
CHATTANOOGA    PTSUNNY   77  64  64 SW12      30.01F
$$

SKY/WX REPORTED AS FAIR MEANS FEW OR NO CLOUDS BELOW
12 THOUSAND FEET.




USA.gov is the U.S. government's official web portal to all federal, state and local government web resources and services.